CW2927 Weather Reports


time (UTC)temp
C
wind
direction
speed
KPH
gust
KPH
rain 1hr
cm
rain 24hr
cm
rain mn
cm
humidity
%
barometer
mb
20260506232705 7 235 4.8 4.8 0.00 0.91 0.89 85 1007.0
20260506232205 7 235 3.2 4.8 0.00 0.91 0.89 85 1006.9
20260506230705 7 235 3.2 4.8 0.00 0.91 0.89 85 1006.9
20260506230205 7 235 3.2 4.8 0.00 0.91 0.89 84 1007.0
20260506224705 7 235 3.2 4.8 0.00 0.91 0.89 85 1006.8
20260506224205 7 235 3.2 8.0 0.00 0.91 0.89 85 1007.0
20260506222705 7 235 4.8 8.0 0.00 0.91 0.89 84 1006.9
20260506222205 7 234 3.2 8.0 0.00 0.91 0.89 84 1006.9
20260506220705 7 234 3.2 4.8 0.00 0.91 0.89 84 1007.0
20260506220205 7 234 3.2 4.8 0.00 0.91 0.89 84 1007.0
20260506214705 7 234 3.2 4.8 0.00 0.91 0.89 84 1006.9
20260506214205 7 234 3.2 8.0 0.00 0.91 0.89 84 1007.0
20260506212704 8 234 4.8 8.0 0.00 0.91 0.89 84 1007.1
20260506212205 8 234 3.2 9.7 0.00 0.91 0.89 84 1007.1
20260506210704 8 232 3.2 4.8 0.00 0.91 0.89 82 1007.1
20260506210205 8 232 4.8 4.8 0.00 0.91 0.89 82 1007.1
20260506204704 8 232 3.2 4.8 0.00 0.91 0.89 83 1007.0
20260506204204 7 232 3.2 8.0 0.00 0.91 0.89 82 1007.0
20260506202704 8 230 4.8 8.0 0.00 0.91 0.89 82 1007.1
20260506202204 8 229 4.8 8.0 0.00 0.91 0.89 83 1007.1
20260506200705 8 226 6.4 9.7 0.00 0.91 0.89 83 1007.1
20260506200205 8 166 3.2 4.8 0.00 0.91 0.89 84 1007.1
20260506194704 8 164 3.2 4.8 0.00 0.91 0.89 84 1007.2
20260506194204 8 164 0.0 3.2 0.00 0.91 0.89 83 1007.2
20260506192704 8 164 1.6 4.8 0.00 0.91 0.89 84 1007.1
20260506192204 8 164 1.6 4.8 0.00 0.91 0.89 85 1007.1
20260506190705 8 164 0.0 4.8 0.03 0.91 0.89 86 1006.9
20260506190205 7 164 1.6 4.8 0.03 0.91 0.89 87 1007.1
20260506184704 7 177 3.2 4.8 0.03 0.91 0.89 87 1007.2
20260506184204 7 222 0.0 4.8 0.03 0.91 0.89 87 1007.4
20260506182705 7 226 0.0 1.6 0.03 0.91 0.89 88 1007.5
20260506182205 7 226 1.6 4.8 0.03 0.91 0.89 88 1007.5
20260506180705 7 227 1.6 4.8 0.03 0.89 0.89 89 1007.8
20260506180204 7 227 1.6 4.8 0.03 0.89 0.89 89 1007.8
20260506174705 7 225 1.6 3.2 0.05 0.89 0.89 89 1008.0
20260506174204 7 225 3.2 4.8 0.05 0.89 0.89 89 1008.0
20260506172704 7 225 1.6 3.2 0.08 0.99 0.89 89 1007.9
20260506172204 6 225 3.2 4.8 0.10 1.02 0.89 89 1008.1
20260506170704 6 224 3.2 4.8 0.10 1.17 0.86 90 1008.3
20260506170204 6 224 1.6 4.8 0.13 1.24 0.86 90 1008.4
20260506164704 6 224 1.6 4.8 0.13 1.24 0.84 90 1008.5
20260506164205 6 224 3.2 4.8 0.10 1.22 0.81 90 1008.6
20260506162704 6 224 1.6 3.2 0.13 1.19 0.79 90 1008.8
20260506162206 6 224 1.6 4.8 0.13 1.17 0.79 90 1008.8
20260506160705 6 224 0.0 1.6 0.13 1.17 0.76 90 1008.8
20260506160205 6 224 0.0 3.2 0.13 1.14 0.74 89 1008.8
20260506154704 6 224 1.6 3.2 0.15 1.12 0.71 88 1008.9
20260506154204 6 224 1.6 4.8 0.15 1.12 0.71 89 1009.0
20260506152704 6 224 1.6 3.2 0.15 1.09 0.69 90 1009.1
20260506152205 6 224 0.0 4.8 0.15 1.07 0.66 89 1009.2
20260506150705 6 224 3.2 4.8 0.15 1.04 0.64 89 1009.2
20260506150204 6 211 3.2 4.8 0.15 1.02 0.61 90 1009.1
20260506144704 6 200 1.6 4.8 0.13 0.99 0.58 91 1009.1
20260506144204 6 200 3.2 4.8 0.13 0.97 0.56 91 1009.2
20260506142704 6 198 0.0 3.2 0.13 0.91 0.51 91 1009.3
20260506140705 6 198 0.0 3.2 0.15 0.89 0.48 91 1009.3
20260506134704 6 198 1.6 3.2 0.15 0.86 0.46 91 1009.2
20260506134204 6 197 0.0 4.8 0.15 0.84 0.43 91 1009.4
20260506132704 6 197 1.6 4.8 0.15 0.89 0.41 91 1009.2
20260506132204 6 198 1.6 4.8 0.13 0.91 0.38 91 1009.3
20260506130704 6 198 0.0 0.0 0.15 0.91 0.33 91 1009.2
20260506130204 6 198 0.0 8.0 0.15 0.91 0.33 91 1009.2
20260506124704 6 202 1.6 4.8 0.15 0.89 0.30 91 1009.1
20260506124204 6 202 3.2 4.8 0.15 0.86 0.28 90 1009.0
20260506122705 6 202 1.6 4.8 0.18 0.84 0.25 90 1008.8
20260506122204 7 202 1.6 4.8 0.20 0.84 0.25 90 1008.9
20260506120704 7 202 1.6 4.8 0.15 0.79 0.20 89 1009.2
20260506120204 7 202 3.2 8.0 0.13 0.76 0.18 89 1009.3
20260506114705 7 217 1.6 4.8 0.13 0.71 0.15 89 1009.4
20260506114204 7 264 3.2 4.8 0.10 0.71 0.13 89 1009.6
20260506112704 7 259 3.2 4.8 0.08 0.66 0.08 88 1009.3
20260506110204 7 211 3.2 9.7 0.05 0.64 0.05 89 1009.0
20260506104704 7 193 3.2 8.0 0.03 0.61 0.03 88 1009.0
20260506104204 7 184 3.2 8.0 0.03 0.61 0.03 89 1008.9
20260506102704 7 167 3.2 14.5 0.00 0.58 0.00 88 1008.7
20260506102204 8 180 6.4 19.3 0.00 0.58 0.00 88 1008.6
20260506100704 8 167 4.8 11.3 0.00 0.58 0.00 87 1008.8
20260506100203 8 167 3.2 11.3 0.00 0.58 0.00 87 1008.7
20260506094704 8 176 4.8 9.7 0.00 0.58 0.00 87 1008.4
20260506094204 8 166 4.8 14.5 0.00 0.58 0.00 86 1008.3
20260506092204 8 173 6.4 14.5 0.00 0.58 0.00 86 1007.9
20260506090704 8 168 6.4 9.7 0.00 0.58 0.00 86 1008.2
20260506090204 8 169 4.8 11.3 0.00 0.58 0.00 85 1008.2
20260506084703 8 176 4.8 12.9 0.00 0.58 0.00 85 1008.1
20260506084204 8 178 3.2 9.7 0.00 0.58 0.00 85 1007.9
20260506082704 8 182 4.8 9.7 0.00 0.58 0.00 85 1008.1
20260506082203 8 184 3.2 11.3 0.00 0.58 0.00 85 1007.9
20260506080704 8 185 4.8 14.5 0.00 0.58 0.00 85 1008.3
20260506080204 8 188 8.0 12.9 0.00 0.58 0.00 85 1008.1
20260506072706 8 187 4.8 11.3 0.00 0.58 0.00 84 1007.8
20260506072206 8 181 8.0 16.1 0.00 0.58 0.00 84 1007.7
20260506070705 8 177 8.0 14.5 0.00 0.58 0.00 84 1007.6
20260506070205 8 171 8.0 12.9 0.00 0.58 0.00 85 1007.7
20260506062205 9 177 8.0 14.5 0.00 0.58 0.00 86 1007.5
20260506060704 9 181 8.0 12.9 0.00 0.58 0.00 87 1007.3
20260506060205 9 208 8.0 32.2 0.00 0.58 0.00 87 1007.3
20260506050705 10 200 8.0 16.1 0.00 0.58 0.00 84 1006.7
20260506050205 10 199 8.0 16.1 0.00 0.58 0.00 84 1006.8
20260506044705 10 183 8.0 29.0 0.00 0.58 0.00 85 1006.7
20260506044205 10 190 4.8 14.5 0.00 0.58 0.00 85 1006.5
20260506042704 10 189 6.4 14.5 0.00 0.58 0.00 85 1006.5
20260506042205 11 193 8.0 27.4 0.00 0.58 0.00 85 1006.6
20260506040705 11 199 6.4 14.5 0.00 0.58 0.00 84 1006.5
20260506040205 11 168 6.4 19.3 0.00 0.58 0.00 84 1006.4
20260506034705 11 209 6.4 14.5 0.00 0.58 0.58 81 1006.0
20260506034206 11 192 6.4 22.5 0.00 0.58 0.58 80 1005.7
20260506032705 12 188 6.4 16.1 0.00 0.58 0.58 78 1005.6
20260506032204 12 218 4.8 14.5 0.03 0.58 0.58 78 1005.5
20260506030705 12 223 6.4 22.5 0.03 0.58 0.58 77 1005.5
20260506030205 12 222 11.3 24.1 0.03 0.58 0.58 77 1005.5
20260506024705 12 243 6.4 24.1 0.03 0.58 0.58 77 1005.5
20260506024205 12 227 8.0 29.0 0.03 0.58 0.58 77 1005.3
20260506022705 13 243 6.4 25.7 0.03 0.58 0.58 76 1005.2
20260506022205 13 252 9.7 25.7 0.00 0.56 0.56 75 1005.1
20260506020705 13 229 8.0 24.1 0.00 0.56 0.56 75 1004.8
20260506020205 13 241 4.8 24.1 0.00 0.56 0.56 75 1004.6
20260506014705 15 285 11.3 25.7 0.00 0.56 0.56 71 1004.5
20260506014204 15 287 8.0 20.9 0.00 0.56 0.56 70 1004.4
20260506012705 15 242 6.4 12.9 0.00 0.56 0.56 70 1003.9
20260506012205 15 248 4.8 11.3 0.00 0.56 0.56 71 1003.6
20260506010705 16 254 4.8 11.3 0.00 0.56 0.56 71 1003.4
20260506010205 16 245 6.4 14.5 0.00 0.56 0.56 71 1003.2
20260506004704 16 221 4.8 9.7 0.00 0.56 0.56 69 1003.0
20260506004205 16 211 4.8 11.3 0.00 0.56 0.56 69 1002.8
20260506002704 16 244 4.8 12.9 0.00 0.56 0.56 70 1002.6
20260506002205 16 232 4.8 19.3 0.00 0.56 0.56 71 1002.6
20260506000705 16 221 4.8 14.5 0.00 0.56 0.56 75 1002.4
20260506000205 16 246 4.8 11.3 0.00 0.56 0.56 78 1002.3
20260505234705 16 182 4.8 9.7 0.00 0.56 0.56 79 1002.0
20260505234205 17 186 8.0 14.5 0.00 0.56 0.56 79 1001.9